Regional Weather Roundup
Issued by NWS

Home | Current Version | Previous Version | Text Only | Print | Product List | Glossary On
Versions: 1 2 3 4 5 6 7 8 9 10 11 12 13 14 15 16 17 18 19 20 21 22 23 24 25 26 27 28 29 30 31 32 33 34 35 36 37 38 39 40 41 42 43 44 45 46 47 48 49 50
000
ASUS42 KFFC 301903
RWRGA
WEATHER ROUNDUP FOR GEORGIA
NATIONAL WEATHER SERVICE PEACHTREE CITY GA
300 PM EDT SAT MAY 30 2015

NOTE: "FAIR" INDICATES FEW OR NO CLOUDS BELOW 12,000 FEET WITH NO
SIGNIFICANT WEATHER AND/OR OBSTRUCTIONS TO VISIBILITY.

* = USE WITH CAUTION. THE STATIONS MARKED WITH AN ASTERISK MAY NOT
REPORT WEATHER SUCH AS PRECIPITATION, FOG, OR THUNDER AND ARE NOT
QUALITY CONTROLLED BY NWS.

THE REMARK "TC" DENOTES TEMPERATURE READING IN DEGREES CELSIUS.

GAZ001>058-302000-
NORTH GEORGIA

CITY           SKY/WX    TMP DP  RH WIND       PRES   REMARKS
ATLANTA        PTSUNNY   83  61  47 SE6       30.14F
ATHENS         MOSUNNY   84  64  50 E6        30.15F
CHAMBLEE       MOSUNNY   83  64  52 SE6       30.14F
PEACHTREE CITY MOSUNNY   85  62  46 S8        30.13F
ROME           PTSUNNY   85  64  49 VRB7      30.11F
WEST ATLANTA   PTSUNNY   83  61  47 S10       30.13F
GAINESVILLE    PTSUNNY   81  66  60 SE9       30.18F
CARTERSVILLE   SUNNY     84  59  42 SE10      30.13F


CITY           SKY/WX    TMP DP  RH WIND       PRES   REMARKS
DALTON*        PTSUNNY   81  64  57 SW7       30.12F
LAWRENCEVILLE* PTSUNNY   82  63  51 SE6       30.14F
MARIETTA       PTSUNNY   83  63  50 E7        30.13F
KENNESAW*      MOSUNNY   84  64  51 SE8       30.14F
BLAIRSVILLE*     N/A     80  24  13 S7        30.19F
$$

GAZ059>098-102>109-302000-
CENTRAL GEORGIA

CITY           SKY/WX    TMP DP  RH WIND       PRES   REMARKS
AUGUSTA-BUSH   MOSUNNY   88  64  44 SE8       30.11F
AUGUSTA-DANIEL MOSUNNY   88  62  41 SE6       30.13F
COLUMBUS       PTSUNNY   84  59  42 S5        30.10F
MACON          MOSUNNY   87  63  44 E8        30.11F
ROBINS AFB     MOSUNNY   85  66  52 VRB3      30.10F


CITY           SKY/WX    TMP DP  RH WIND       PRES   REMARKS
LAGRANGE*      PTSUNNY   88  70  54 S6        30.12F HX  93
SYLVANIA*      MOSUNNY   87  68  54 SE7       30.14F HX  90
MILLEDGEVILLE* PTSUNNY   82  68  61 CALM      30.13F
$$

GAZ099>101-110>166-302000-
SOUTH GEORGIA

CITY           SKY/WX    TMP DP  RH WIND       PRES   REMARKS
SAVANNAH       TSTM      77  70  79 N6        30.14S
VALDOSTA       MOSUNNY   89  63  41 VRB5      30.08F HX  90
ALMA           MOSUNNY   86  67  52 E12       30.10F
FT STEWART     CLOUDY    76  72  86 S7        30.11F THUNDER
ALBANY         MOSUNNY   91  59  33 VRB5      30.10F HX  90
HUNTER AFB     PTSUNNY   83  69  62 SE9       30.10F
MOODY AFB      PTSUNNY   90  63  41 VRB5      30.07F HX  90
BRUNSWICK      MOSUNNY   84  64  51 SE10      30.12F


CITY           SKY/WX    TMP DP  RH WIND       PRES   REMARKS
BAINBRIDGE*    SUNNY     91  68  46 SE7       30.08F HX  95
MOULTRIE*      MOSUNNY   88  63  42 NE6       30.10F
VIDALIA*       PTSUNNY   86  64  48 E8        30.11F
WAYCROSS*      PTSUNNY   85  73  65 E12       30.10S HX  92
DOUGLAS*       PTSUNNY   88  64  45 E5        30.10F
$$


USA.gov is the U.S. government's official web portal to all federal, state and local government web resources and services.